Погода Тарко-Сале

Погода Тарко-Сале : погода сейчас, прогноз погоды и архив. Всё, что Вы хотите узнать о погоде Тарко-Сале!

Хотите узнать прогноз погоды Тарко-Сале? Тогда Вам сюда: Погода Тарко-Сале

Поиск расширенной информации на нашем сайте:

Другие новости

Новости СМИ2

Главная страница сайта

Новости сайта

03.07.2017

Напоминаем, что на нашем специализированном сайте Метеоцентр.Азия вы можете получить высокодетализированные автоматические прогнозы погоды по пунктам России, СНГ и мира в авиационном формате (включающие направление и скорость ветра, видимость, явления погоды, количество и форму облачности, нижнюю и верхнюю границу облачности).

Рекомендуем: http://china-dv.ru/ заказать и купить болюсы хуато.

Погода Тарко-Сале - сегодня

Время (UTC), дата Ветер
(°,м/с) 
Видим.   Явления Облачность Т
(°С)
Тd
(°С)
f(%) Тe
(°С)
Pmin
(гПа)
dP
(гПа)
Po
(мм)
O2
(г/м3)
Тmin Tmax R s Состояние
почвы
03 20.07.17 020 (С) 10 км    3/0 верхняя 
[Ci fib]
+25.5 +13 46 +31  1014.1  -0.2  758  277  +15.3         
06 20.07.17 010 (С) 10 км    6/4 600 м верхняя 
[Cu med, cong|Ci fib]
+28.4 +9.4 30 +29  1013.7  -0.3  758  275           
09 20.07.17 360 (С) 10 км    9/4 600 м верхняя 
[Cu med, cong|Ci fib]
+29.8 +6.7 23 +30  1013.4  -0.4  758  274           
12 20.07.17 030 (СВ) 10 км    8/3 600 м кучево-дожд., верхняя 
[Cb cap|Cs]
+28.7 +9.5 30 +29  1012.8  -0.6  757  275           
15 20.07.17 340 (С) 10 км    8/3 600 м верхняя 
[Cu med, cong|Ci fib]
+26.4 +11.8 40 +30  1013.4  0.6  758  276    +30       
18 20.07.17 040 (СВ) 10 км    1/0 верхняя 
[Ci fib]
+21 +13.1 61 +26  1014.2  0.8  758  281           
21 20.07.17 030 (СВ) 10 км    3/0 верхняя 
[Ci fib]
+17.7 +12.7 73 +24  1015  0.7  759  285           
00 21.07.17 040 (СВ) 10 км    4/0 верхняя 
[Ci fib]
+18.8 +12.9 69 +25  1015.6  0.7  759  284           
03 21.07.17 040 (СВ) 10 км    3/0 верхняя 
[Ci fib]
+24.4 +14.7 55 +32  1016.1  0.5  760  278  +17.4         
06 21.07.17 050 (СВ) 10 км    ясно 
+29.5 +9.3 28 +30  1016.3  0.3  760  275           
09 21.07.17 020 (С) 10 км    8/5 540 м средняя, верхняя 
[Cu hum|Ac trans|Ci fib]
+30.1 +8.9 27 +30  1015.9  -0.4  760  274           
12 21.07.17 020 (С) 10 км    10/5 540 м средняя, верхняя 
[Cu hum|Ac trans|Ci fib]
+28.7 +9.3 30 +29  1015.8  -0.1  760  275           
15 21.07.17 070 (В) 10 км    3/0 средняя, верхняя 
[Ac trans|Ci fib]
+26.5 +11.4 39 +29  1016  0.1  760  277    +30.7       
18 21.07.17 040 (СВ) 10 км    1/0 верхняя 
[Ci fib]
+19 +13.2 69 +26  1016.6  0.5  760  284           
21 21.07.17 050 (СВ) 10 км    6/0 верхняя 
[Ci fib]
+17.7 +11.4 67 +22  1016.8  0.2  760  286           
00 22.07.17 040 (СВ) 10 км    1/0 верхняя 
[Ci fib]
+19.1 +13.1 68 +26  1016.8  760  284           
03 22.07.17 070 (В) 10 км    ясно 
+25.2 +13.4 48 +31  1017  0.3  761  278  +16.8         
06 22.07.17 060 (СВ) 10 км    ясно 
+28.2 +8 28 +28  1016.8  -0.2  760  276           
09 22.07.17 080 (В) 10 км    ясно 
+29.3 +3.4 19 +29  1016.3  -0.5  760  276           
12 22.07.17 080 (В) 10 км    ясно 
+28.1 +2.7 20 +28  1015.5  -0.8  759  277           
15 22.07.17 070 (В) 10 км    ясно 
+24.9 +6.7 31 +25  1015.8  0.2  760  279    +29.3       
18 22.07.17 060 (СВ) 10 км    ясно 
+17.4 +9.8 61 +20  1016.1  0.3  760  286           
21 22.07.17 060 (СВ) 10 км    ясно 
+14 +10.2 78 +16  1016  -0.1  760  289           
00 23.07.17 080 (В) 10 км    ясно 
+17.8 +11 64 +21  1016  760  285           
06 23.07.17 120 (ЮВ) 10 км    ясно 
+27.2 +7.9 30 +27  1015.1  -0.6  759  277           
Время (UTC), дата Ветер
(°,м/с) 
Видим.   Явления Облачность Т
(°С)
Тd
(°С)
f(%) Тe
(°С)
Pmin
(гПа)
dP
(гПа)
Po
(мм)
O2
(г/м3)
Тmin Tmax R s Состояние
почвы

Для получения пояснительной информации подведите курсор к названию столбца.

ПОГОДА Тарко-Сале - архив

Всё, что Вы хотите узнать о погоде Тарко-Сале - удобно и подробно!

Выберите нужную дату (начиная с 1 января 2015* года) и нажмите кнопку "Найти".
Будут отображены архивные сводки погоды по пункту Тарко-Сале, начиная с указанной даты.


Отображать данные в формате CSV (для использования в таблицах Excel)


Внимание! Наш архив погоды предназначен исключительно для личного некоммерческого использования в познавательных целях. Если Вам необходимы официальные справки о состоянии погоды (для производственных, юридических, коммерческих и т.п. целей), обращайтесь в органы Росгидромета.

*Примечание: данная дата относится к архиву по метеостанциям СССР (Россия, СНГ, Балтия).
Архив по метеостанциям Зарубежной Европы и Азии (кроме Китая) хранится 10 дней, по другим регионам земного шара (Китай, Африка, Америка, Австралия, Океания) - 1 день.

Тарко-Сале - район местоположения метеостанции


Название, широта, долгота, высота метеостанции:
Тарко-Сале 64.9°ш. 77.8°д. 27 м над ур. моря [Российская Федерация]

Дополнительная информация

В oтличие oт бoльшинства пoгoдных сайтoв мы публикуем пoдрoбную метеoинфoрмацию в детальнoм прoфессиoнальнoм фoрмате.

Характеристики температуры и влажнoсти вoздуха измеряются на высoте 2 м в тени вдали oт зданий и деревьев.
Скoрoсть ветра измеряется на высoте 10 м (на урoвне рoста челoвека скoрoсть ветра ниже в 1.5-2 раза). Если метеoстанция нахoдится в гoрoде или в лесу, тo скoрoсть ветра занижена на 2-4 м/с пo сравнению с oткрытым местoм. Скoрoсть ветра над акватoриями крупных рек и oзёр, а также на вершинах хoлмoв на 2-5 м/с выше, чем в oбычных услoвиях.
Атмoсфернoе давление в разных тoчках местнoсти мoжет значительнo oтличаться oт давления на метеoстанции, в зависимoсти oт услoвий рельефа (при пoдъёме на 10 м давление пoнижается примернo на 1 мм рт.ст.).